Year,Month,Day,Hour,Minute,Value (Times are PST for temperature in C)
2015,06,17,00,00,15.30
2015,06,17,00,01,15.20
2015,06,17,00,02,15.20
2015,06,17,00,03,15.20
2015,06,17,00,04,15.20
2015,06,17,00,05,15.20
2015,06,17,00,06,15.20
2015,06,17,00,07,15.10
2015,06,17,00,08,15.10
2015,06,17,00,09,15.10
2015,06,17,00,10,15.00
2015,06,17,00,11,15.00
2015,06,17,00,12,15.00
2015,06,17,00,13,15.00
2015,06,17,00,14,15.00
2015,06,17,00,15,15.10
2015,06,17,00,16,15.10
2015,06,17,00,17,15.10
2015,06,17,00,18,15.20
2015,06,17,00,19,15.20
2015,06,17,00,20,15.20
2015,06,17,00,21,15.30
2015,06,17,00,22,15.30
2015,06,17,00,23,15.30
2015,06,17,00,24,15.30
2015,06,17,00,25,15.40
2015,06,17,00,26,15.40
2015,06,17,00,27,15.40
2015,06,17,00,28,15.50
2015,06,17,00,29,15.50
2015,06,17,00,30,15.50
2015,06,17,00,31,15.60
2015,06,17,00,32,15.60
2015,06,17,00,33,15.60
2015,06,17,00,34,15.60
2015,06,17,00,35,15.60
2015,06,17,00,36,15.60
2015,06,17,00,37,15.60
2015,06,17,00,38,15.60
2015,06,17,00,39,15.60
2015,06,17,00,40,15.60
2015,06,17,00,41,15.60
2015,06,17,00,42,15.60
2015,06,17,00,43,15.60
2015,06,17,00,44,15.60
2015,06,17,00,45,15.60
2015,06,17,00,46,15.60
2015,06,17,00,47,15.60
2015,06,17,00,48,15.60
2015,06,17,00,49,15.60
2015,06,17,00,50,15.70
2015,06,17,00,51,15.70
2015,06,17,00,52,15.70
2015,06,17,00,53,15.70
2015,06,17,00,54,15.70
2015,06,17,00,55,15.70
2015,06,17,00,56,15.70
2015,06,17,00,57,15.70
2015,06,17,00,58,15.70
2015,06,17,00,59,15.70
2015,06,17,01,00,15.70
2015,06,17,01,01,15.70
2015,06,17,01,02,15.70
2015,06,17,01,03,15.70
2015,06,17,01,04,15.70
2015,06,17,01,05,15.70
2015,06,17,01,06,15.70
2015,06,17,01,07,15.70
2015,06,17,01,08,15.70
2015,06,17,01,09,15.70
2015,06,17,01,10,15.70
2015,06,17,01,11,15.70
2015,06,17,01,12,15.70
2015,06,17,01,13,15.70
2015,06,17,01,14,15.70
2015,06,17,01,15,15.70
2015,06,17,01,16,15.70
2015,06,17,01,17,15.70
2015,06,17,01,18,15.70
2015,06,17,01,19,15.70
2015,06,17,01,20,15.70
2015,06,17,01,21,15.70
2015,06,17,01,22,15.70
2015,06,17,01,23,15.70
2015,06,17,01,24,15.70
2015,06,17,01,25,15.70
2015,06,17,01,26,15.70
2015,06,17,01,27,15.70
2015,06,17,01,28,15.70
2015,06,17,01,29,15.70
2015,06,17,01,30,15.70
2015,06,17,01,31,15.70
2015,06,17,01,32,15.70
2015,06,17,01,33,15.70
2015,06,17,01,34,15.70
2015,06,17,01,35,15.70
2015,06,17,01,36,15.70
2015,06,17,01,37,15.70
2015,06,17,01,38,15.70
2015,06,17,01,39,15.70
2015,06,17,01,40,15.70
2015,06,17,01,41,15.70
2015,06,17,01,42,15.70
2015,06,17,01,43,15.70
2015,06,17,01,44,15.60
2015,06,17,01,45,15.60
2015,06,17,01,46,15.60
2015,06,17,01,47,15.60
2015,06,17,01,48,15.60
2015,06,17,01,49,15.60
2015,06,17,01,50,15.60
2015,06,17,01,51,15.50
2015,06,17,01,52,15.50
2015,06,17,01,53,15.50
2015,06,17,01,54,15.50
2015,06,17,01,55,15.40
2015,06,17,01,56,15.40
2015,06,17,01,57,15.40
2015,06,17,01,58,15.40
2015,06,17,01,59,15.30
2015,06,17,02,00,15.30
2015,06,17,02,01,15.30
2015,06,17,02,02,15.30
2015,06,17,02,03,15.30
2015,06,17,02,04,15.20
2015,06,17,02,05,15.20
2015,06,17,02,06,15.20
2015,06,17,02,07,15.20
2015,06,17,02,08,15.20
2015,06,17,02,09,15.20
2015,06,17,02,10,15.20
2015,06,17,02,11,15.20
2015,06,17,02,12,15.20
2015,06,17,02,13,15.10
2015,06,17,02,14,15.10
2015,06,17,02,15,15.10
2015,06,17,02,16,15.10
2015,06,17,02,17,15.10
2015,06,17,02,18,15.10
2015,06,17,02,19,15.10
2015,06,17,02,20,15.10
2015,06,17,02,21,15.10
2015,06,17,02,22,15.10
2015,06,17,02,23,15.10
2015,06,17,02,24,15.10
2015,06,17,02,25,15.10
2015,06,17,02,26,15.10
2015,06,17,02,27,15.10
2015,06,17,02,28,15.10
2015,06,17,02,29,15.10
2015,06,17,02,30,15.00
2015,06,17,02,31,15.00
2015,06,17,02,32,15.00
2015,06,17,02,33,15.00
2015,06,17,02,34,15.00
2015,06,17,02,35,15.00
2015,06,17,02,36,15.00
2015,06,17,02,37,15.00
2015,06,17,02,38,15.00
2015,06,17,02,39,15.00
2015,06,17,02,40,15.00
2015,06,17,02,41,15.00
2015,06,17,02,42,15.00
2015,06,17,02,43,15.00
2015,06,17,02,44,15.00
2015,06,17,02,45,14.90
2015,06,17,02,46,14.90
2015,06,17,02,47,14.90
2015,06,17,02,48,14.80
2015,06,17,02,49,14.80
2015,06,17,02,50,14.80
2015,06,17,02,51,14.80
2015,06,17,02,52,14.80
2015,06,17,02,53,14.80
2015,06,17,02,54,14.70
2015,06,17,02,55,14.70
2015,06,17,02,56,14.70
2015,06,17,02,57,14.70
2015,06,17,02,58,14.60
2015,06,17,02,59,14.60
2015,06,17,03,00,14.60
2015,06,17,03,01,14.60
2015,06,17,03,02,14.60
2015,06,17,03,06,14.50
2015,06,17,03,07,14.40
2015,06,17,03,08,14.40
2015,06,17,03,09,14.40
2015,06,17,03,10,14.40
2015,06,17,03,11,14.40
2015,06,17,03,12,14.30
2015,06,17,03,13,14.30
2015,06,17,03,14,14.30
2015,06,17,03,15,14.30
2015,06,17,03,16,14.30
2015,06,17,03,17,14.30
2015,06,17,03,18,14.30
2015,06,17,03,19,14.30
2015,06,17,03,20,14.30
2015,06,17,03,21,14.20
2015,06,17,03,22,14.20
2015,06,17,03,23,14.20
2015,06,17,03,24,14.20
2015,06,17,03,25,14.20
2015,06,17,03,26,14.20
2015,06,17,03,27,14.20
2015,06,17,03,28,14.20
2015,06,17,03,29,14.20
2015,06,17,03,30,14.20
2015,06,17,03,31,14.10
2015,06,17,03,32,14.10
2015,06,17,03,33,14.10
2015,06,17,03,34,14.10
2015,06,17,03,35,14.10
2015,06,17,03,36,14.10
2015,06,17,03,37,14.10
2015,06,17,03,38,14.10
2015,06,17,03,39,14.10
2015,06,17,03,40,14.10
2015,06,17,03,41,14.10
2015,06,17,03,42,14.10
2015,06,17,03,43,14.10
2015,06,17,03,44,14.10
2015,06,17,03,45,14.10
2015,06,17,03,46,14.10
2015,06,17,03,47,14.10
2015,06,17,03,48,14.10
2015,06,17,03,49,14.10
2015,06,17,03,50,14.10
2015,06,17,03,51,14.10
2015,06,17,03,52,14.10
2015,06,17,03,53,14.00
2015,06,17,03,54,14.00
2015,06,17,03,55,14.00
2015,06,17,03,56,14.00
2015,06,17,03,57,14.00
2015,06,17,03,58,13.90
2015,06,17,03,59,13.90
2015,06,17,04,00,13.90
2015,06,17,04,01,13.90
2015,06,17,04,02,13.90
2015,06,17,04,03,13.90
2015,06,17,04,04,13.80
2015,06,17,04,05,13.80
2015,06,17,04,06,13.80
2015,06,17,04,07,13.80
2015,06,17,04,08,13.80
2015,06,17,04,09,13.80
2015,06,17,04,10,13.80
2015,06,17,04,11,13.80
2015,06,17,04,12,13.80
2015,06,17,04,13,13.80
2015,06,17,04,14,13.80
2015,06,17,04,15,13.80
2015,06,17,04,16,13.80
2015,06,17,04,17,13.70
2015,06,17,04,18,13.70
2015,06,17,04,19,13.70
2015,06,17,04,20,13.70
2015,06,17,04,21,13.70
2015,06,17,04,22,13.70
2015,06,17,04,23,13.70
2015,06,17,04,24,13.80
2015,06,17,04,25,13.80
2015,06,17,04,26,13.80
2015,06,17,04,27,13.80
2015,06,17,04,28,13.80
2015,06,17,04,29,13.80
2015,06,17,04,30,13.80
2015,06,17,04,31,13.80
2015,06,17,04,32,13.80
2015,06,17,04,33,13.80
2015,06,17,04,34,13.80
2015,06,17,04,35,13.80
2015,06,17,04,36,13.80
2015,06,17,04,37,13.70
2015,06,17,04,38,13.70
2015,06,17,04,39,13.70
2015,06,17,04,40,13.70
2015,06,17,04,41,13.70
2015,06,17,04,42,13.70
2015,06,17,04,43,13.60
2015,06,17,04,44,13.60
2015,06,17,04,45,13.60
2015,06,17,04,46,13.60
2015,06,17,04,47,13.60
2015,06,17,04,48,13.70
2015,06,17,04,49,13.70
2015,06,17,04,50,13.70
2015,06,17,04,51,13.70
2015,06,17,04,52,13.70
2015,06,17,04,53,13.70
2015,06,17,04,54,13.70
2015,06,17,04,55,13.70
2015,06,17,04,56,13.70
2015,06,17,04,57,13.70
2015,06,17,04,58,13.70
2015,06,17,04,59,13.70
2015,06,17,05,00,13.70
2015,06,17,05,01,13.70
2015,06,17,05,02,13.70
2015,06,17,05,03,13.70
2015,06,17,05,04,13.70
2015,06,17,05,05,13.80
2015,06,17,05,06,13.80
2015,06,17,05,07,13.80
2015,06,17,05,08,13.80
2015,06,17,05,09,13.80
2015,06,17,05,10,13.80
2015,06,17,05,11,13.80
2015,06,17,05,12,13.80
2015,06,17,05,13,13.80
2015,06,17,05,14,13.80
2015,06,17,05,15,13.80
2015,06,17,05,16,13.90
2015,06,17,05,17,13.90
2015,06,17,05,18,13.90
2015,06,17,05,19,13.90
2015,06,17,05,20,13.90
2015,06,17,05,21,13.90
2015,06,17,05,22,13.90
2015,06,17,05,23,13.90
2015,06,17,05,24,13.90
2015,06,17,05,25,13.90
2015,06,17,05,26,13.90
2015,06,17,05,27,14.00
2015,06,17,05,28,14.00
2015,06,17,05,29,14.00
2015,06,17,05,30,14.00
2015,06,17,05,31,14.00
2015,06,17,05,32,14.00
2015,06,17,05,33,14.00
2015,06,17,05,34,14.00
2015,06,17,05,35,14.00
2015,06,17,05,36,14.00
2015,06,17,05,37,14.00
2015,06,17,05,38,14.00
2015,06,17,05,39,14.00
2015,06,17,05,40,14.00
2015,06,17,05,41,14.00
2015,06,17,05,42,14.10
2015,06,17,05,43,14.10
2015,06,17,05,44,14.00
2015,06,17,05,45,14.00
2015,06,17,05,46,14.00
2015,06,17,05,47,14.00
2015,06,17,05,48,14.00
2015,06,17,05,49,14.00
2015,06,17,05,50,14.00
2015,06,17,05,51,14.00
2015,06,17,05,52,14.00
2015,06,17,05,53,14.00
2015,06,17,05,54,14.00
2015,06,17,05,55,14.00
2015,06,17,05,56,14.10
2015,06,17,05,57,14.10
2015,06,17,05,58,14.10
2015,06,17,05,59,14.10
2015,06,17,06,00,14.10
2015,06,17,06,01,14.20
2015,06,17,06,02,14.20
2015,06,17,06,03,14.20
2015,06,17,06,04,14.20
2015,06,17,06,05,14.20
2015,06,17,06,06,14.20
2015,06,17,06,07,14.20
2015,06,17,06,08,14.20
2015,06,17,06,09,14.20
2015,06,17,06,10,14.20
2015,06,17,06,11,14.20
2015,06,17,06,12,14.20
2015,06,17,06,13,14.20
2015,06,17,06,14,14.30
2015,06,17,06,15,14.30
2015,06,17,06,16,14.30
2015,06,17,06,17,14.30
2015,06,17,06,18,14.30
2015,06,17,06,19,14.30
2015,06,17,06,20,14.30
2015,06,17,06,21,14.20
2015,06,17,06,22,14.20
2015,06,17,06,23,14.20
2015,06,17,06,24,14.20
2015,06,17,06,25,14.20
2015,06,17,06,26,14.20
2015,06,17,06,27,14.20
2015,06,17,06,28,14.20
2015,06,17,06,29,14.20
2015,06,17,06,30,14.20
2015,06,17,06,31,14.20
2015,06,17,06,32,14.20
2015,06,17,06,33,14.20
2015,06,17,06,34,14.20
2015,06,17,06,35,14.20
2015,06,17,06,36,14.30
2015,06,17,06,37,14.30
2015,06,17,06,38,14.30
2015,06,17,06,39,14.40
2015,06,17,06,40,14.50
2015,06,17,06,41,14.50
2015,06,17,06,42,14.60
2015,06,17,06,43,14.70
2015,06,17,06,44,14.80
2015,06,17,06,45,14.90
2015,06,17,06,46,15.00
2015,06,17,06,47,15.00
2015,06,17,06,48,15.00
2015,06,17,06,49,15.00
2015,06,17,06,50,15.00
2015,06,17,06,51,15.00
2015,06,17,06,52,15.00
2015,06,17,06,53,15.00
2015,06,17,06,54,15.10
2015,06,17,06,55,15.10
2015,06,17,06,56,15.20
2015,06,17,06,57,15.30
2015,06,17,06,58,15.30
2015,06,17,06,59,15.40
2015,06,17,07,00,15.40
2015,06,17,07,01,15.50
2015,06,17,07,02,15.50
2015,06,17,07,03,15.60
2015,06,17,07,04,15.50
2015,06,17,07,05,15.50
2015,06,17,07,06,15.50
2015,06,17,07,07,15.50
2015,06,17,07,08,15.60
2015,06,17,07,09,15.70
2015,06,17,07,10,15.80
2015,06,17,07,11,15.90
2015,06,17,07,12,16.00
2015,06,17,07,13,16.00
2015,06,17,07,14,16.00
2015,06,17,07,15,16.00
2015,06,17,07,16,16.00
2015,06,17,07,17,16.00
2015,06,17,07,18,16.10
2015,06,17,07,19,16.20
2015,06,17,07,20,16.30
2015,06,17,07,21,16.50
2015,06,17,07,22,16.60
2015,06,17,07,23,16.70
2015,06,17,07,24,16.80
2015,06,17,07,25,16.90
2015,06,17,07,26,16.90
2015,06,17,07,27,16.90
2015,06,17,07,28,16.80
2015,06,17,07,29,16.80
2015,06,17,07,30,16.70
2015,06,17,07,31,16.60
2015,06,17,07,32,16.50
2015,06,17,07,33,16.40
2015,06,17,07,34,16.30
2015,06,17,07,35,16.10
2015,06,17,07,36,16.00
2015,06,17,07,37,15.90
2015,06,17,07,38,15.80
2015,06,17,07,39,15.80
2015,06,17,07,40,15.80
2015,06,17,07,41,15.80
2015,06,17,07,42,15.80
2015,06,17,07,43,15.80
2015,06,17,07,44,15.90
2015,06,17,07,45,15.90
2015,06,17,07,46,15.90
2015,06,17,07,47,15.80
2015,06,17,07,48,15.80
2015,06,17,07,49,15.80
2015,06,17,07,50,15.90
2015,06,17,07,51,15.90
2015,06,17,07,52,16.00
2015,06,17,07,53,16.10
2015,06,17,07,54,16.10
2015,06,17,07,55,16.10
2015,06,17,07,56,16.10
2015,06,17,07,57,16.00
2015,06,17,07,58,16.00
2015,06,17,07,59,16.00
2015,06,17,08,00,16.10
2015,06,17,08,01,16.10
2015,06,17,08,02,16.20
2015,06,17,08,03,16.20
2015,06,17,08,04,16.30
2015,06,17,08,05,16.40
2015,06,17,08,06,16.40
2015,06,17,08,07,16.40
2015,06,17,08,08,16.50
2015,06,17,08,09,16.60
2015,06,17,08,10,16.50
2015,06,17,08,11,16.50
2015,06,17,08,12,16.40
2015,06,17,08,13,16.40
2015,06,17,08,14,16.30
2015,06,17,08,15,16.20
2015,06,17,08,16,16.10
2015,06,17,08,17,16.00
2015,06,17,08,18,16.00
2015,06,17,08,19,16.00
2015,06,17,08,20,15.90
2015,06,17,08,21,15.90
2015,06,17,08,22,15.90
2015,06,17,08,23,15.90
2015,06,17,08,24,15.90
2015,06,17,08,25,15.80
2015,06,17,08,26,15.90
2015,06,17,08,27,15.90
2015,06,17,08,28,16.00
2015,06,17,08,29,16.00
2015,06,17,08,30,16.10
2015,06,17,08,31,16.20
2015,06,17,08,32,16.10
2015,06,17,08,33,16.10
2015,06,17,08,34,16.10
2015,06,17,08,35,16.00
2015,06,17,08,36,16.00
2015,06,17,08,37,16.00
2015,06,17,08,38,16.00
2015,06,17,08,39,16.00
2015,06,17,08,40,16.00
2015,06,17,08,41,15.90
2015,06,17,08,42,15.80
2015,06,17,08,43,15.70
2015,06,17,08,44,15.70
2015,06,17,08,45,15.70
2015,06,17,08,46,15.70
2015,06,17,08,47,15.80
2015,06,17,08,48,15.80
2015,06,17,08,49,15.80
2015,06,17,08,50,15.80
2015,06,17,08,51,15.80
2015,06,17,08,52,15.90
2015,06,17,08,53,15.90
2015,06,17,08,54,15.80
2015,06,17,08,55,15.80
2015,06,17,08,56,15.70
2015,06,17,08,57,15.70
2015,06,17,08,58,15.70
2015,06,17,08,59,15.60
2015,06,17,09,00,15.70
2015,06,17,09,01,15.70
2015,06,17,09,02,15.80
2015,06,17,09,03,15.80
2015,06,17,09,04,15.80
2015,06,17,09,05,15.80
2015,06,17,09,06,15.80
2015,06,17,09,07,15.80
2015,06,17,09,08,15.80
2015,06,17,09,09,15.80
2015,06,17,09,10,15.80
2015,06,17,09,11,15.80
2015,06,17,09,12,15.80
2015,06,17,09,13,15.70
2015,06,17,09,14,15.70
2015,06,17,09,15,15.60
2015,06,17,09,16,15.50
2015,06,17,09,17,15.50
2015,06,17,09,18,15.50
2015,06,17,09,19,15.50
2015,06,17,09,20,15.60
2015,06,17,09,21,15.60
2015,06,17,09,22,15.50
2015,06,17,09,23,15.50
2015,06,17,09,24,15.50
2015,06,17,09,25,15.60
2015,06,17,09,26,15.60
2015,06,17,09,27,15.70
2015,06,17,09,28,15.80
2015,06,17,09,29,15.80
2015,06,17,09,30,15.80
2015,06,17,09,31,15.80
2015,06,17,09,32,15.90
2015,06,17,09,33,16.00
2015,06,17,09,34,16.10
2015,06,17,09,35,16.20
2015,06,17,09,36,16.30
2015,06,17,09,37,16.40
2015,06,17,09,38,16.40
2015,06,17,09,39,16.40
2015,06,17,09,40,16.40
2015,06,17,09,41,16.30
2015,06,17,09,42,16.20
2015,06,17,09,43,16.20
2015,06,17,09,44,16.20
2015,06,17,09,45,16.00
2015,06,17,09,46,16.00
2015,06,17,09,47,15.90
2015,06,17,09,48,15.90
2015,06,17,09,49,15.80
2015,06,17,09,50,15.80
2015,06,17,09,51,15.80
2015,06,17,09,52,15.80
2015,06,17,09,53,15.80
2015,06,17,09,54,15.80
2015,06,17,09,55,15.80
2015,06,17,09,56,15.80
2015,06,17,09,57,15.80
2015,06,17,09,58,15.80
2015,06,17,09,59,15.80
2015,06,17,10,00,15.80
2015,06,17,10,01,15.80
2015,06,17,10,02,15.90
2015,06,17,10,03,15.90
2015,06,17,10,04,15.90
2015,06,17,10,05,15.90
2015,06,17,10,06,15.90
2015,06,17,10,07,15.90
2015,06,17,10,08,15.90
2015,06,17,10,09,15.90
2015,06,17,10,10,15.90
2015,06,17,10,11,16.00
2015,06,17,10,12,16.00
2015,06,17,10,13,16.10
2015,06,17,10,14,16.10
2015,06,17,10,15,16.20
2015,06,17,10,16,16.30
2015,06,17,10,17,16.50
2015,06,17,10,18,16.60
2015,06,17,10,19,16.70
2015,06,17,10,20,16.80
2015,06,17,10,21,16.80
2015,06,17,10,22,16.70
2015,06,17,10,23,16.60
2015,06,17,10,24,16.50
2015,06,17,10,25,16.50
2015,06,17,10,26,16.40
2015,06,17,10,27,16.40
2015,06,17,10,28,16.40
2015,06,17,10,29,16.40
2015,06,17,10,30,16.40
2015,06,17,10,31,16.50
2015,06,17,10,32,16.50
2015,06,17,10,33,16.50
2015,06,17,10,34,16.50
2015,06,17,10,35,16.40
2015,06,17,10,36,16.30
2015,06,17,10,37,16.40
2015,06,17,10,38,16.30
2015,06,17,10,39,16.30
2015,06,17,10,40,16.40
2015,06,17,10,41,16.60
2015,06,17,10,42,16.70
2015,06,17,10,43,16.80
2015,06,17,10,44,16.90
2015,06,17,10,45,17.00
2015,06,17,10,46,17.10
2015,06,17,10,47,17.30
2015,06,17,10,48,17.30
2015,06,17,10,49,17.20
2015,06,17,10,50,17.10
2015,06,17,10,51,17.10
2015,06,17,10,52,17.10
2015,06,17,10,53,17.10
2015,06,17,10,54,17.00
2015,06,17,10,55,16.90
2015,06,17,10,56,16.90
2015,06,17,10,57,17.00
2015,06,17,10,58,17.00
2015,06,17,10,59,17.10
2015,06,17,11,00,17.30
2015,06,17,11,01,17.30
2015,06,17,11,02,17.30
2015,06,17,11,03,17.30
2015,06,17,11,04,17.20
2015,06,17,11,05,17.20
2015,06,17,11,06,17.20
2015,06,17,11,07,17.20
2015,06,17,11,08,17.20
2015,06,17,11,09,17.30
2015,06,17,11,10,17.20
2015,06,17,11,11,17.20
2015,06,17,11,12,17.10
2015,06,17,11,13,17.10
2015,06,17,11,14,17.10
2015,06,17,11,15,17.10
2015,06,17,11,16,17.00
2015,06,17,11,17,17.00
2015,06,17,11,18,17.00
2015,06,17,11,19,17.00
2015,06,17,11,20,17.10
2015,06,17,11,21,17.20
2015,06,17,11,22,17.20
2015,06,17,11,23,17.10
2015,06,17,11,24,17.10
2015,06,17,11,25,17.00
2015,06,17,11,26,16.90
2015,06,17,11,27,16.80
2015,06,17,11,28,16.80
2015,06,17,11,29,16.80
2015,06,17,11,30,16.80
2015,06,17,11,31,16.80
2015,06,17,11,32,16.80
2015,06,17,11,33,16.80
2015,06,17,11,34,16.80
2015,06,17,11,35,16.80
2015,06,17,11,36,16.70
2015,06,17,11,37,16.80
2015,06,17,11,38,16.80
2015,06,17,11,39,16.90
2015,06,17,11,40,17.00
2015,06,17,11,41,17.20
2015,06,17,11,42,17.30
2015,06,17,11,43,17.40
2015,06,17,11,44,17.30
2015,06,17,11,45,17.20
2015,06,17,11,46,17.20
2015,06,17,11,47,17.20
2015,06,17,11,48,17.30
2015,06,17,11,49,17.30
2015,06,17,11,50,17.30
2015,06,17,11,51,17.30
2015,06,17,11,52,17.20
2015,06,17,11,53,17.10
2015,06,17,11,54,17.00
2015,06,17,11,55,16.90
2015,06,17,11,56,16.80
2015,06,17,11,57,16.80
2015,06,17,11,58,16.70
2015,06,17,11,59,16.60
2015,06,17,12,00,16.60
2015,06,17,12,01,16.60
2015,06,17,12,02,16.70
2015,06,17,12,03,16.80
2015,06,17,12,04,16.80
2015,06,17,12,05,16.80
2015,06,17,12,06,16.80
2015,06,17,12,07,16.70
2015,06,17,12,08,16.70
2015,06,17,12,09,16.60
2015,06,17,12,10,16.60
2015,06,17,12,11,16.70
2015,06,17,12,12,16.70
2015,06,17,12,13,16.80
2015,06,17,12,14,16.80
2015,06,17,12,15,16.90
2015,06,17,12,16,16.90
2015,06,17,12,17,17.00
2015,06,17,12,18,17.00
2015,06,17,12,19,17.10
2015,06,17,12,20,17.10
2015,06,17,12,21,17.10
2015,06,17,12,22,17.00
2015,06,17,12,23,17.00
2015,06,17,12,24,17.00
2015,06,17,12,25,16.90
2015,06,17,12,26,16.90
2015,06,17,12,27,16.90
2015,06,17,12,28,16.90
2015,06,17,12,29,17.00
2015,06,17,12,30,17.10
2015,06,17,12,31,17.20
2015,06,17,12,32,17.30
2015,06,17,12,33,17.30
2015,06,17,12,34,17.50
2015,06,17,12,35,17.60
2015,06,17,12,36,17.60
2015,06,17,12,37,17.50
2015,06,17,12,38,17.50
2015,06,17,12,39,17.40
2015,06,17,12,40,17.40
2015,06,17,12,41,17.40
2015,06,17,12,42,17.40
2015,06,17,12,43,17.40
2015,06,17,12,44,17.30
2015,06,17,12,45,17.30
2015,06,17,12,46,17.30
2015,06,17,12,47,17.30
2015,06,17,12,48,17.30
2015,06,17,12,49,17.30
2015,06,17,12,50,17.30
2015,06,17,12,51,17.30
2015,06,17,12,52,17.20
2015,06,17,12,53,17.20
2015,06,17,12,54,17.20
2015,06,17,12,55,17.20
2015,06,17,12,56,17.20
2015,06,17,12,57,17.30
2015,06,17,12,58,17.30
2015,06,17,12,59,17.40
2015,06,17,13,00,17.40
2015,06,17,13,01,17.50
2015,06,17,13,02,17.40
2015,06,17,13,03,17.40
2015,06,17,13,04,17.30
2015,06,17,13,05,17.20
2015,06,17,13,06,17.20
2015,06,17,13,07,17.10
2015,06,17,13,08,17.10
2015,06,17,13,09,17.10
2015,06,17,13,10,17.20
2015,06,17,13,11,17.30
2015,06,17,13,12,17.40
2015,06,17,13,13,17.60
2015,06,17,13,14,17.80
2015,06,17,13,15,17.80
2015,06,17,13,16,17.80
2015,06,17,13,17,17.80
2015,06,17,13,18,17.80
2015,06,17,13,19,17.80
2015,06,17,13,20,17.80
2015,06,17,13,21,17.90
2015,06,17,13,22,17.90
2015,06,17,13,23,17.90
2015,06,17,13,24,18.00
2015,06,17,13,25,18.10
2015,06,17,13,26,18.10
2015,06,17,13,27,18.10
2015,06,17,13,28,18.10
2015,06,17,13,29,18.00
2015,06,17,13,30,18.00
2015,06,17,13,31,17.90
2015,06,17,13,32,17.90
2015,06,17,13,33,17.80
2015,06,17,13,34,17.70
2015,06,17,13,35,17.60
2015,06,17,13,36,17.70
2015,06,17,13,37,17.70
2015,06,17,13,38,17.70
2015,06,17,13,39,17.70
2015,06,17,13,40,17.70
2015,06,17,13,41,17.70
2015,06,17,13,42,17.80
2015,06,17,13,43,17.90
2015,06,17,13,44,17.90
2015,06,17,13,45,18.00
2015,06,17,13,46,18.10
2015,06,17,13,47,18.00
2015,06,17,13,48,17.90
2015,06,17,13,49,18.00
2015,06,17,13,50,18.00
2015,06,17,13,51,18.10
2015,06,17,13,52,18.20
2015,06,17,13,53,18.30
2015,06,17,13,54,18.40
2015,06,17,13,55,18.40
2015,06,17,13,56,18.50
2015,06,17,13,57,18.60
2015,06,17,13,58,18.70
2015,06,17,13,59,18.70
2015,06,17,14,00,18.70
2015,06,17,14,01,18.60
2015,06,17,14,02,18.50
2015,06,17,14,03,18.50
2015,06,17,14,04,18.40
2015,06,17,14,05,18.30
2015,06,17,14,06,18.30
2015,06,17,14,07,18.30
2015,06,17,14,08,18.40
2015,06,17,14,09,18.40
2015,06,17,14,10,18.40
2015,06,17,14,11,18.50
2015,06,17,14,12,18.40
2015,06,17,14,13,18.40
2015,06,17,14,14,18.30
2015,06,17,14,15,18.30
2015,06,17,14,16,18.30
2015,06,17,14,17,18.30
2015,06,17,14,18,18.30
2015,06,17,14,19,18.30
2015,06,17,14,20,18.30
2015,06,17,14,21,18.40
2015,06,17,14,22,18.40
2015,06,17,14,23,18.40
2015,06,17,14,24,18.30
2015,06,17,14,25,18.20
2015,06,17,14,26,18.20
2015,06,17,14,27,18.30
2015,06,17,14,28,18.30
2015,06,17,14,29,18.20
2015,06,17,14,30,18.20
2015,06,17,14,31,18.30
2015,06,17,14,32,18.30
2015,06,17,14,33,18.30
2015,06,17,14,34,18.40
2015,06,17,14,35,18.40
2015,06,17,14,36,18.50
2015,06,17,14,37,18.60
2015,06,17,14,38,18.70
2015,06,17,14,39,18.80
2015,06,17,14,40,18.90
2015,06,17,14,41,19.10
2015,06,17,14,42,19.10
2015,06,17,14,43,19.20
2015,06,17,14,44,19.20
2015,06,17,14,45,19.20
2015,06,17,14,46,19.20
2015,06,17,14,47,19.10
2015,06,17,14,48,19.10
2015,06,17,14,49,19.20
2015,06,17,14,50,19.20
2015,06,17,14,51,19.20
2015,06,17,14,52,19.10
2015,06,17,14,53,19.10
2015,06,17,14,54,19.00
2015,06,17,14,55,19.00
2015,06,17,14,56,19.10
2015,06,17,14,57,19.10
2015,06,17,14,58,19.00
2015,06,17,14,59,19.10
2015,06,17,15,00,19.00
2015,06,17,15,01,18.90
2015,06,17,15,02,18.90
2015,06,17,15,03,18.90
2015,06,17,15,04,18.90
2015,06,17,15,05,18.90
2015,06,17,15,06,19.00
2015,06,17,15,07,19.00
2015,06,17,15,08,19.10
2015,06,17,15,09,19.20
2015,06,17,15,10,19.30
2015,06,17,15,11,19.40
2015,06,17,15,12,19.40
2015,06,17,15,13,19.50
2015,06,17,15,14,19.60
2015,06,17,15,15,19.60
2015,06,17,15,16,19.60
2015,06,17,15,17,19.60
2015,06,17,15,18,19.50
2015,06,17,15,19,19.40
2015,06,17,15,20,19.30
2015,06,17,15,21,19.30
2015,06,17,15,22,19.20
2015,06,17,15,23,19.20
2015,06,17,15,24,19.30
2015,06,17,15,25,19.40
2015,06,17,15,26,19.50
2015,06,17,15,27,19.60
2015,06,17,15,28,19.60
2015,06,17,15,29,19.60
2015,06,17,15,30,19.60
2015,06,17,15,31,19.60
2015,06,17,15,32,19.50
2015,06,17,15,33,19.50
2015,06,17,15,34,19.50
2015,06,17,15,35,19.50
2015,06,17,15,36,19.40
2015,06,17,15,37,19.40
2015,06,17,15,38,19.40
2015,06,17,15,39,19.50
2015,06,17,15,40,19.60
2015,06,17,15,41,19.70
2015,06,17,15,42,19.70
2015,06,17,15,43,19.60
2015,06,17,15,44,19.60
2015,06,17,15,45,19.60
2015,06,17,15,46,19.60
2015,06,17,15,47,19.60
2015,06,17,15,48,19.60
2015,06,17,15,49,19.70
2015,06,17,15,50,19.70
2015,06,17,15,51,19.70
2015,06,17,15,52,19.70
2015,06,17,15,53,19.70
2015,06,17,15,54,19.70
2015,06,17,15,55,19.70
2015,06,17,15,56,19.80
2015,06,17,15,57,19.80
2015,06,17,15,58,19.80
2015,06,17,15,59,19.80
2015,06,17,16,00,19.80
2015,06,17,16,01,19.90
2015,06,17,16,02,20.10
2015,06,17,16,03,20.10
2015,06,17,16,04,20.20
2015,06,17,16,05,20.20
2015,06,17,16,06,20.30
2015,06,17,16,07,20.40
2015,06,17,16,08,20.50
2015,06,17,16,09,20.60
2015,06,17,16,10,20.70
2015,06,17,16,11,20.70
2015,06,17,16,12,20.70
2015,06,17,16,13,20.80
2015,06,17,16,14,20.80
2015,06,17,16,15,20.70
2015,06,17,16,16,20.70
2015,06,17,16,17,20.60
2015,06,17,16,18,20.60
2015,06,17,16,19,20.70
2015,06,17,16,20,20.70
2015,06,17,16,21,20.80
2015,06,17,16,22,20.70
2015,06,17,16,23,20.70
2015,06,17,16,24,20.60
2015,06,17,16,25,20.60
2015,06,17,16,26,20.50
2015,06,17,16,27,20.50
2015,06,17,16,28,20.40
2015,06,17,16,29,20.40
2015,06,17,16,30,20.40
2015,06,17,16,31,20.40
2015,06,17,16,32,20.40
2015,06,17,16,33,20.40
2015,06,17,16,34,20.40
2015,06,17,16,35,20.30
2015,06,17,16,36,20.10
2015,06,17,16,37,20.10
2015,06,17,16,38,20.10
2015,06,17,16,39,20.10
2015,06,17,16,40,20.00
2015,06,17,16,41,20.00
2015,06,17,16,42,20.00
2015,06,17,16,43,20.00
2015,06,17,16,44,19.90
2015,06,17,16,45,19.90
2015,06,17,16,46,19.90
2015,06,17,16,47,19.80
2015,06,17,16,48,19.80
2015,06,17,16,49,19.80
2015,06,17,16,50,19.70
2015,06,17,16,51,19.70
2015,06,17,16,52,19.80
2015,06,17,16,53,19.80
2015,06,17,16,54,19.80
2015,06,17,16,55,19.70
2015,06,17,16,56,19.70
2015,06,17,16,57,19.70
2015,06,17,16,58,19.70
2015,06,17,16,59,19.80
2015,06,17,17,00,19.90
2015,06,17,17,01,19.90
2015,06,17,17,02,20.00
2015,06,17,17,03,19.90
2015,06,17,17,04,19.90
2015,06,17,17,05,20.00
2015,06,17,17,06,20.00
2015,06,17,17,07,20.00
2015,06,17,17,08,20.00
2015,06,17,17,09,20.00
2015,06,17,17,10,20.00
2015,06,17,17,11,19.90
2015,06,17,17,12,19.80
2015,06,17,17,13,19.80
2015,06,17,17,14,19.80
2015,06,17,17,15,19.80
2015,06,17,17,16,19.80
2015,06,17,17,17,19.80
2015,06,17,17,18,19.90
2015,06,17,17,19,19.90
2015,06,17,17,20,19.90
2015,06,17,17,21,19.90
2015,06,17,17,22,19.90